User: anonymous   Login
Location: Bethera
(33.2010°N, 79.7880°W)
Time: 22:17:28
(UTC-04:00)
Language:

Cosmos 1833 Rocket - Orbit

View from above orbital plane
View from above orbital plane
View from above satellite
View from above satellite

Ground track
Ground track

The orbit data is extracted from the following two-line orbital elements,

1 17590U 87027B   15213.40157956 -.00000237  00000-0 -94402-4 0  9992
2 17590 071.0032 154.0193 0007381 269.7970 090.2308 14.16699885466992
Epoch (UTC): 01 August 2015 09:38:16
Eccentricity: 0.0007381
inclination: 71.0032°
perigee height: 831 km
apogee height: 842 km
right ascension of ascending node: 154.0193°
argument of perigee: 269.7970°
revolutions per day: 14.16699885
mean anomaly at epoch: 90.2308°
orbit number at epoch: 46699

The dashed part of the orbit path shows where the satellite is in the earth's shadow,  

DLR